Time,TemperatureF,DewpointF,PressureIn,WindDirection,WindDirectionDegrees,WindSpeedMPH,WindSpeedGustMPH,Humidity,HourlyPrecipIn,Conditions,Clouds,dailyrainin,SolarRadiationWatts/m^2,SoftwareType,DateUTC
2013-02-20 00:00:00,70.4,66.0,30.11,WSW,250,13.0,-999.0,87,-99.99,,,0.00,0,weatherlink.com 1.10,2013-02-20 05:00:00,
2013-02-20 00:15:00,69.6,66.0,30.11,WSW,257,12.0,-999.0,89,-99.99,,,0.00,0,weatherlink.com 1.10,2013-02-20 05:15:00,
2013-02-20 00:30:00,69.0,66.0,30.10,WSW,250,5.0,-999.0,90,-99.99,,,0.06,0,weatherlink.com 1.10,2013-02-20 05:30:00,
2013-02-20 00:45:00,68.5,66.0,30.09,SSW,209,0.0,-999.0,91,-99.99,,,0.06,0,weatherlink.com 1.10,2013-02-20 05:45:00,
2013-02-20 01:00:00,68.3,66.0,30.09,SSW,193,0.0,-999.0,91,-99.99,,,0.06,0,weatherlink.com 1.10,2013-02-20 06:00:00,
2013-02-20 01:15:00,67.8,65.0,30.08,SSW,194,0.0,-999.0,91,-99.99,,,0.06,0,weatherlink.com 1.10,2013-02-20 06:15:00,
2013-02-20 01:30:00,67.7,65.0,30.08,SSW,198,0.0,-999.0,91,-99.99,,,0.06,0,weatherlink.com 1.10,2013-02-20 06:30:00,
2013-02-20 01:45:00,68.1,66.0,30.08,SW,218,0.0,-999.0,92,-99.99,,,0.06,0,weatherlink.com 1.10,2013-02-20 06:45:00,
2013-02-20 02:00:00,68.4,66.0,30.08,West,261,1.0,-999.0,92,-99.99,,,0.06,0,weatherlink.com 1.10,2013-02-20 07:00:00,
2013-02-20 02:15:00,68.3,66.0,30.08,West,280,6.0,-999.0,92,-99.99,,,0.06,0,weatherlink.com 1.10,2013-02-20 07:15:00,
2013-02-20 02:30:00,68.0,66.0,30.07,WNW,288,5.0,-999.0,92,-99.99,,,0.06,0,weatherlink.com 1.10,2013-02-20 07:30:00,
2013-02-20 02:45:00,67.9,66.0,30.07,West,281,2.0,-999.0,92,-99.99,,,0.06,0,weatherlink.com 1.10,2013-02-20 07:45:00,
2013-02-20 03:00:00,68.0,66.0,30.07,West,279,5.0,-999.0,93,-99.99,,,0.06,0,weatherlink.com 1.10,2013-02-20 08:00:00,
2013-02-20 03:15:00,68.0,66.0,30.07,WNW,292,6.0,-999.0,93,-99.99,,,0.06,0,weatherlink.com 1.10,2013-02-20 08:15:00,
2013-02-20 03:30:00,67.8,66.0,30.06,WSW,252,0.0,-999.0,93,-99.99,,,0.06,0,weatherlink.com 1.10,2013-02-20 08:30:00,
2013-02-20 03:45:00,67.8,66.0,30.06,West,274,3.0,-999.0,93,-99.99,,,0.06,0,weatherlink.com 1.10,2013-02-20 08:45:00,
2013-02-20 04:00:00,67.7,66.0,30.07,West,275,6.0,-999.0,93,-99.99,,,0.06,0,weatherlink.com 1.10,2013-02-20 09:00:00,
2013-02-20 04:15:00,67.8,66.0,30.06,WNW,291,0.0,-999.0,93,-99.99,,,0.06,0,weatherlink.com 1.10,2013-02-20 09:15:00,
2013-02-20 04:31:00,67.6,66.0,30.06,NW,309,3.0,-999.0,93,-99.99,,,0.06,0,weatherlink.com 1.10,2013-02-20 09:31:00,
2013-02-20 04:45:00,67.4,65.0,30.07,WNW,294,8.0,-999.0,93,-99.99,,,0.06,0,weatherlink.com 1.10,2013-02-20 09:45:00,
2013-02-20 05:00:00,67.3,65.0,30.07,WNW,302,7.0,-999.0,93,-99.99,,,0.06,0,weatherlink.com 1.10,2013-02-20 10:00:00,
2013-02-20 05:15:00,67.1,65.0,30.07,WNW,301,8.0,-999.0,93,-99.99,,,0.06,0,weatherlink.com 1.10,2013-02-20 10:15:00,
2013-02-20 05:30:00,66.7,65.0,30.06,North,355,6.0,-999.0,93,-99.99,,,0.06,0,weatherlink.com 1.10,2013-02-20 10:30:00,
2013-02-20 05:45:00,66.4,64.0,30.07,NNW,338,0.0,-999.0,93,-99.99,,,0.06,0,weatherlink.com 1.10,2013-02-20 10:45:00,
2013-02-20 06:00:00,66.1,64.0,30.07,NNW,346,0.0,-999.0,93,-99.99,,,0.06,0,weatherlink.com 1.10,2013-02-20 11:00:00,
2013-02-20 06:15:00,65.8,64.0,30.08,NW,313,0.0,-999.0,93,-99.99,,,0.06,0,weatherlink.com 1.10,2013-02-20 11:15:00,
2013-02-20 06:30:00,65.9,64.0,30.09,WNW,300,0.0,-999.0,94,-99.99,,,0.06,0,weatherlink.com 1.10,2013-02-20 11:30:00,
2013-02-20 06:45:00,65.8,64.0,30.10,WNW,300,0.0,-999.0,94,-99.99,,,0.06,0,weatherlink.com 1.10,2013-02-20 11:45:00,
2013-02-20 07:00:00,65.7,64.0,30.10,WNW,300,0.0,-999.0,94,-99.99,,,0.06,9,weatherlink.com 1.10,2013-02-20 12:00:00,
2013-02-20 07:15:00,65.5,64.0,30.10,WNW,300,0.0,-999.0,94,-99.99,,,0.07,19,weatherlink.com 1.10,2013-02-20 12:15:00,
2013-02-20 07:30:00,65.4,64.0,30.11,WNW,300,0.0,-999.0,94,-99.99,,,0.07,26,weatherlink.com 1.10,2013-02-20 12:30:00,
2013-02-20 07:45:00,65.4,64.0,30.11,WNW,285,0.0,-999.0,94,-99.99,,,0.07,42,weatherlink.com 1.10,2013-02-20 12:45:00,
2013-02-20 08:00:00,65.4,64.0,30.11,WNW,286,2.0,-999.0,94,-99.99,,,0.07,46,weatherlink.com 1.10,2013-02-20 13:00:00,
2013-02-20 08:15:00,65.6,64.0,30.12,WNW,293,0.0,-999.0,94,-99.99,,,0.07,197,weatherlink.com 1.10,2013-02-20 13:15:00,
2013-02-20 08:30:00,66.3,65.0,30.12,WNW,297,0.0,-999.0,94,-99.99,,,0.07,301,weatherlink.com 1.10,2013-02-20 13:30:00,
2013-02-20 08:45:00,67.7,66.0,30.12,NW,319,2.0,-999.0,95,-99.99,,,0.07,404,weatherlink.com 1.10,2013-02-20 13:45:00,
2013-02-20 09:00:00,68.6,67.0,30.12,North,11,1.0,-999.0,94,-99.99,,,0.07,457,weatherlink.com 1.10,2013-02-20 14:00:00,
2013-02-20 09:15:00,69.9,68.0,30.11,NNW,336,3.0,-999.0,93,-99.99,,,0.07,520,weatherlink.com 1.10,2013-02-20 14:15:00,
2013-02-20 09:30:00,71.2,68.0,30.11,North,5,5.0,-999.0,90,-99.99,,,0.07,580,weatherlink.com 1.10,2013-02-20 14:30:00,
2013-02-20 09:45:00,72.6,68.0,30.12,NNW,344,5.0,-999.0,85,-99.99,,,0.07,652,weatherlink.com 1.10,2013-02-20 14:45:00,
2013-02-20 10:00:00,74.2,66.0,30.11,North,350,4.0,-999.0,76,-99.99,,,0.07,413,weatherlink.com 1.10,2013-02-20 15:00:00,
2013-02-20 10:15:00,74.5,65.0,30.11,NNE,30,6.0,-999.0,72,-99.99,,,0.07,693,weatherlink.com 1.10,2013-02-20 15:15:00,
2013-02-20 10:30:00,75.6,66.0,30.11,NE,40,8.0,-999.0,71,-99.99,,,0.07,754,weatherlink.com 1.10,2013-02-20 15:30:00,
2013-02-20 10:45:00,76.2,67.0,30.12,NNE,23,11.0,-999.0,72,-99.99,,,0.07,733,weatherlink.com 1.10,2013-02-20 15:45:00,
2013-02-20 11:00:00,76.3,67.0,30.12,NNE,26,12.0,-999.0,73,-99.99,,,0.07,858,weatherlink.com 1.10,2013-02-20 16:00:00,
2013-02-20 11:15:00,76.5,68.0,30.11,NNE,26,7.0,-999.0,74,-99.99,,,0.07,817,weatherlink.com 1.10,2013-02-20 16:15:00,
2013-02-20 11:30:00,76.9,69.0,30.10,NE,39,7.0,-999.0,76,-99.99,,,0.07,831,weatherlink.com 1.10,2013-02-20 16:30:00,
2013-02-20 11:45:00,77.3,69.0,30.10,North,9,7.0,-999.0,76,-99.99,,,0.07,846,weatherlink.com 1.10,2013-02-20 16:45:00,
2013-02-20 12:00:00,77.3,69.0,30.10,NNE,22,6.0,-999.0,76,-99.99,,,0.07,907,weatherlink.com 1.10,2013-02-20 17:00:00,
2013-02-20 12:15:00,77.6,69.0,30.09,NE,45,7.0,-999.0,75,-99.99,,,0.07,914,weatherlink.com 1.10,2013-02-20 17:15:00,
2013-02-20 12:30:00,78.0,70.0,30.09,NNE,23,11.0,-999.0,75,-99.99,,,0.07,863,weatherlink.com 1.10,2013-02-20 17:30:00,
2013-02-20 12:46:00,78.4,70.0,30.09,NNE,26,11.0,-999.0,74,-99.99,,,0.07,698,weatherlink.com 1.10,2013-02-20 17:46:00,
2013-02-20 13:00:00,77.8,69.0,30.09,NNE,19,13.0,-999.0,75,-99.99,,,0.07,853,weatherlink.com 1.10,2013-02-20 18:00:00,
2013-02-20 13:15:00,77.5,69.0,30.08,NNE,22,9.0,-999.0,75,-99.99,,,0.07,837,weatherlink.com 1.10,2013-02-20 18:15:00,
2013-02-20 13:30:00,78.0,70.0,30.08,NNE,19,9.0,-999.0,76,-99.99,,,0.07,824,weatherlink.com 1.10,2013-02-20 18:30:00,
2013-02-20 13:45:00,77.9,70.0,30.06,NE,47,7.0,-999.0,76,-99.99,,,0.07,807,weatherlink.com 1.10,2013-02-20 18:45:00,
2013-02-20 14:00:00,77.0,69.0,30.05,NE,45,10.0,-999.0,77,-99.99,,,0.07,786,weatherlink.com 1.10,2013-02-20 19:00:00,
2013-02-20 14:15:00,77.0,69.0,30.05,NE,53,9.0,-999.0,77,-99.99,,,0.07,700,weatherlink.com 1.10,2013-02-20 19:15:00,
2013-02-20 14:30:00,76.2,69.0,30.04,ENE,57,9.0,-999.0,77,-99.99,,,0.07,304,weatherlink.com 1.10,2013-02-20 19:30:00,
2013-02-20 14:45:00,76.4,69.0,30.03,ENE,61,7.0,-999.0,78,-99.99,,,0.07,330,weatherlink.com 1.10,2013-02-20 19:45:00,
2013-02-20 15:00:00,76.8,69.0,30.03,East,84,5.0,-999.0,78,-99.99,,,0.07,652,weatherlink.com 1.10,2013-02-20 20:00:00,
2013-02-20 15:15:00,76.6,69.0,30.03,ENE,57,7.0,-999.0,77,-99.99,,,0.07,647,weatherlink.com 1.10,2013-02-20 20:15:00,
2013-02-20 15:31:00,76.5,69.0,30.03,ENE,68,5.0,-999.0,77,-99.99,,,0.07,543,weatherlink.com 1.10,2013-02-20 20:31:00,
2013-02-20 15:46:00,77.8,70.0,30.02,ESE,117,13.0,-999.0,78,-99.99,,,0.07,524,weatherlink.com 1.10,2013-02-20 20:46:00,
2013-02-20 16:01:00,77.9,71.0,30.03,SE,132,13.0,-999.0,78,-99.99,,,0.07,443,weatherlink.com 1.10,2013-02-20 21:01:00,
2013-02-20 16:16:00,78.0,70.0,30.03,SE,142,9.0,-999.0,77,-99.99,,,0.07,381,weatherlink.com 1.10,2013-02-20 21:16:00,
2013-02-20 16:31:00,77.6,70.0,30.03,SE,138,9.0,-999.0,77,-99.99,,,0.07,320,weatherlink.com 1.10,2013-02-20 21:31:00,
2013-02-20 16:46:00,77.1,69.0,30.03,ESE,121,9.0,-999.0,76,-99.99,,,0.07,262,weatherlink.com 1.10,2013-02-20 21:46:00,
2013-02-20 17:01:00,76.6,69.0,30.02,East,99,8.0,-999.0,76,-99.99,,,0.07,206,weatherlink.com 1.10,2013-02-20 22:01:00,
2013-02-20 17:16:00,76.2,68.0,30.03,East,92,10.0,-999.0,76,-99.99,,,0.07,158,weatherlink.com 1.10,2013-02-20 22:16:00,
2013-02-20 17:31:00,75.6,68.0,30.04,SE,128,5.0,-999.0,77,-99.99,,,0.07,93,weatherlink.com 1.10,2013-02-20 22:31:00,
2013-02-20 17:46:00,74.8,68.0,30.04,ESE,104,9.0,-999.0,78,-99.99,,,0.07,35,weatherlink.com 1.10,2013-02-20 22:46:00,
2013-02-20 18:01:00,74.1,67.0,30.04,SE,136,8.0,-999.0,78,-99.99,,,0.07,16,weatherlink.com 1.10,2013-02-20 23:01:00,
2013-02-20 18:16:00,73.6,67.0,30.05,SE,140,2.0,-999.0,79,-99.99,,,0.07,0,weatherlink.com 1.10,2013-02-20 23:16:00,
2013-02-20 18:31:00,73.2,66.0,30.06,SE,126,5.0,-999.0,79,-99.99,,,0.07,0,weatherlink.com 1.10,2013-02-20 23:31:00,
2013-02-20 18:46:00,72.7,66.0,30.07,ESE,121,0.0,-999.0,79,-99.99,,,0.07,0,weatherlink.com 1.10,2013-02-20 23:46:00,
2013-02-20 19:01:00,72.2,66.0,30.06,SE,126,0.0,-999.0,80,-99.99,,,0.07,0,weatherlink.com 1.10,2013-02-21 00:01:00,
2013-02-20 19:16:00,71.8,65.0,30.07,SE,129,0.0,-999.0,80,-99.99,,,0.07,0,weatherlink.com 1.10,2013-02-21 00:16:00,
2013-02-20 19:31:00,71.6,66.0,30.07,ESE,123,2.0,-999.0,81,-99.99,,,0.07,0,weatherlink.com 1.10,2013-02-21 00:31:00,
2013-02-20 19:46:00,71.3,66.0,30.07,SE,135,5.0,-999.0,82,-99.99,,,0.07,0,weatherlink.com 1.10,2013-02-21 00:46:00,
2013-02-20 20:01:00,71.1,65.0,30.07,ESE,109,5.0,-999.0,82,-99.99,,,0.07,0,weatherlink.com 1.10,2013-02-21 01:01:00,
2013-02-20 20:16:00,71.1,66.0,30.07,ESE,119,8.0,-999.0,83,-99.99,,,0.07,0,weatherlink.com 1.10,2013-02-21 01:16:00,
2013-02-20 20:31:00,71.0,66.0,30.07,ESE,108,6.0,-999.0,83,-99.99,,,0.07,0,weatherlink.com 1.10,2013-02-21 01:31:00,
2013-02-20 20:46:00,70.9,66.0,30.07,ESE,111,5.0,-999.0,83,-99.99,,,0.07,0,weatherlink.com 1.10,2013-02-21 01:46:00,
2013-02-20 21:01:00,70.7,65.0,30.07,East,98,6.0,-999.0,83,-99.99,,,0.07,0,weatherlink.com 1.10,2013-02-21 02:01:00,
2013-02-20 21:16:00,70.9,66.0,30.07,East,100,9.0,-999.0,83,-99.99,,,0.07,0,weatherlink.com 1.10,2013-02-21 02:16:00,
2013-02-20 21:31:00,71.1,66.0,30.08,East,91,6.0,-999.0,84,-99.99,,,0.07,0,weatherlink.com 1.10,2013-02-21 02:31:00,
2013-02-20 21:46:00,71.4,66.0,30.09,ENE,70,6.0,-999.0,83,-99.99,,,0.07,0,weatherlink.com 1.10,2013-02-21 02:46:00,
2013-02-20 22:01:00,71.3,66.0,30.09,East,90,5.0,-999.0,83,-99.99,,,0.07,0,weatherlink.com 1.10,2013-02-21 03:01:00,
2013-02-20 22:16:00,71.5,66.0,30.09,East,93,6.0,-999.0,83,-99.99,,,0.07,0,weatherlink.com 1.10,2013-02-21 03:16:00,
2013-02-20 22:31:00,71.5,66.0,30.09,East,86,5.0,-999.0,82,-99.99,,,0.07,0,weatherlink.com 1.10,2013-02-21 03:31:00,
2013-02-20 22:46:00,71.7,66.0,30.09,East,94,6.0,-999.0,82,-99.99,,,0.07,0,weatherlink.com 1.10,2013-02-21 03:46:00,
2013-02-20 23:01:00,71.7,66.0,30.09,East,94,7.0,-999.0,82,-99.99,,,0.07,0,weatherlink.com 1.10,2013-02-21 04:01:00,
2013-02-20 23:16:00,71.9,66.0,30.08,East,97,6.0,-999.0,82,-99.99,,,0.07,0,weatherlink.com 1.10,2013-02-21 04:16:00,
2013-02-20 23:31:00,72.3,67.0,30.08,East,92,7.0,-999.0,82,-99.99,,,0.07,0,weatherlink.com 1.10,2013-02-21 04:31:00,
2013-02-20 23:46:00,72.4,67.0,30.07,East,92,7.0,-999.0,82,-99.99,,,0.07,0,weatherlink.com 1.10,2013-02-21 04:46:00,